Regional Weather Roundup
Issued by NWS

Home | Current Version | Previous Version | Text Only | Print | Product List | Glossary On
Versions: 1 2 3 4 5 6 7 8 9 10 11 12 13 14 15 16 17 18 19 20 21 22 23 24 25 26 27 28 29 30 31 32 33 34 35 36 37 38 39 40 41 42 43 44 45 46 47 48 49 50
000
ASUS43 KTOP 280159
RWRKS

WEATHER ROUNDUP FOR KANSAS
NATIONAL WEATHER SERVICE GOODLAND KS
800 PM CST MON FEB 27 2017

NOTE:  "FAIR" INDICATES FEW OR NO CLOUDS BELOW 12,000 FEET WITH NO
SIGNIFICANT WEATHER AND/OR OBSTRUCTIONS TO VISIBILITY.

KSZ001>006-013>018-027>032-041>047-280300-
NORTHWEST KANSAS

CITY           SKY/WX    TMP DP  RH WIND       PRES   REMARKS
GOODLAND       CLOUDY    45  14  28 S12       29.56S
HAYS             N/A     49  39  68 SE12      29.64
HILL CITY      CLOUDY    47  16  29 S7        29.61F
RUSSELL        CLOUDY    52  42  69 SE13      29.64F
$$

KSZ061>065-074>080-084>089-280300-
SOUTHWEST KANSAS

CITY           SKY/WX    TMP DP  RH WIND       PRES   REMARKS
DODGE CITY     PTCLDY    53  21  28 S10       29.64F
ELKHART          N/A     56   7  14 SW10        N/A
GARDEN CITY    CLEAR     49  17  28 SE10      29.62S
GREAT BEND     PTCLDY    47  41  80 SE10      29.65F
LIBERAL        CLEAR     55  18  22 S15       29.68R
$$

KSZ066>073-081>083-090>101-280300-
SOUTHEAST KANSAS

CITY           SKY/WX    TMP DP  RH WIND       PRES   REMARKS
CHANUTE        CLOUDY    62  54  74 S14       29.80S
COFFEYVILLE    CLOUDY    64  56  75 S18G26    29.82R
HUTCHINSON     CLEAR     50  45  83 SE7       29.69F
MEDICINE LODGE   N/A     58  32  37 S13       29.70S
NEWTON         CLEAR     52  45  77 SE14      29.72F
PARSONS        MOCLDY    63  55  75 S14G23    29.82R
WICHITA INTL   PTCLDY    56  44  64 SE12      29.71S
WICHITA JABRA  CLEAR     57  50  77 S10       29.72S
WINFIELD       CLEAR     61  54  77 S18       29.77R
$$

KSZ007>012-019>026-033>040-048>060-102>105-280300-
NORTHEAST KANSAS

CITY           SKY/WX    TMP DP  RH WIND       PRES   REMARKS
CONCORDIA      CLOUDY    50  42  74 S9        29.69S
EMPORIA        CLOUDY    55  47  74 SE14      29.74F
LAWRENCE         N/A    N/A N/A N/A MISG      29.76F
MANHATTAN      CLOUDY    52  43  71 E3        29.72F
OLATHE IND     CLOUDY    55  48  77 SE7       29.79S
OLATHE EXE     CLOUDY    54  46  74 SE6       29.79S
SALINA         CLOUDY    54  44  69 SE8       29.69F
TOPEKA BILLARD CLOUDY    55  47  74 SE3       29.75F
TOPEKA FORBES  CLOUDY    55  46  71 SE9       29.75F
$$



USA.gov is the U.S. government's official web portal to all federal, state and local government web resources and services.